Location: Viterbo
(42.4170°N, 12.1000°E)
Time: 10:14:04
(UTC+01:00)

ISS - Visible Passes

Search period start: 16 November 2018 00:00
Search period end: 26 November 2018 00:00
Orbit: 401 x 408 km, 51.6° (Epoch: 16 November)

Date Brightness Start Highest point End Pass type
(mag) Time Alt. Az. Time Alt. Az. Time Alt. Az.
16 Nov -1.6 05:38:44 13° SW 05:38:44 13° SW 05:39:54 10° SSW visible
22 Nov -1.5 18:39:32 10° S 18:40:28 16° S 18:40:28 16° S visible
23 Nov -1.6 17:48:41 10° SSE 17:50:13 13° SE 17:50:47 12° ESE visible
23 Nov -0.6 19:23:02 10° WSW 19:23:28 13° WSW 19:23:28 13° WSW visible
24 Nov -3.4 18:30:55 10° SW 18:33:40 50° S 18:33:40 50° S visible
25 Nov -2.7 17:39:07 10° SSW 17:42:00 29° SE 17:43:48 17° E visible
25 Nov -1.0 19:15:20 10° W 19:16:28 19° W 19:16:28 19° W visible
